www.pogodaiklimat.ru

Погода и климат >> Архив погоды >> Мадагаскар >> Taolagnaro


ПОГОДА в Taolagnaro

  • Прогноз погоды в Taolagnaro
  • Монитор погоды в Taolagnaro
  • Климат города

АРХИВ ПОГОДЫ в Taolagnaro

Время (UTC), дата Ветер
(напр.,м/с)
 
Видим.   Явления Облачность Т
(С)
Тd
(С)
f
(%)
Тe
(С)
Тes
(С)
Комфортность P
(гПа)
Po
(гПа)
Тmin
(С)
Tmax
(С)
R
(мм)
R24
(мм)
S
(см)
15 9.07 ЮВ 7 20 км осадки на расстоянии {дождь} 9/9 480 м
[Cu Sc]
+20.5 +16.4 77 +23 +23 комфорт 1026.4 1025.5 +21.6 2
18 9.07 В 8 15 км {дождь} 6/6 300 м
[Cu Sc]
+21.0 +16.9 77 +24 +24 комфорт 1026.3 1025.3 3
21 9.07 В 8 10 км в посл. час дождь 8/8 480 м
[Cu Sc]
+20.7 +17.8 83 +24 +24 комфорт 1026.0 1025.0 0.2
00 10.07 В 5 10 км в посл. час дождь 9/9 480 м
[Cu Sc]
+19.5 +18.4 93 +22 +22 комфорт 1025.5 1024.5 4
03 10.07 В 5 10 км в посл. час дождь 9/9 480 м
[Cu Sc]
+18.4 +17.8 96 +19 +19 1025.6 1024.6 5
06 10.07 В 5 15 км осадки на расстоянии {дождь} 9/9 300 м
[Cu Sc]
+20.0 +16.7 81 +23 +23 комфорт 1027.0 1016.0 +18.4 +21.6 9
09 10.07 СВ 7 20 км 8/8 600 м
[Cu Sc]
+22.5 +16.3 68 +27 +27 душно 1026.2 1025.3 0.4
12 10.07 СВ 7 25 км 6/5 600 м
[Cu Sc Ac trans]
+23.8 +16.7 64 +27 +28 жарко 1024.5 1023.5
15 10.07 СВ 5 20 км 4/4 480 м
[Cu Sc]
+20.4 +17.1 81 +24 +24 комфорт 1024.9 1024.0 +23.8
18 10.07 СВ 3 20 км 6/6 480 м
[Cu Sc]
+20.0 +17.6 86 +23 +23 комфорт 1025.7 1024.8 +23.8
21 10.07 СВ 5 20 км 5/5 480 м
[Cu Sc]
+19.6 +17.0 85 +22 +22 комфорт 1024.9 1024.0
00 11.07 СВ 5 20 км 4/4 480 м
[Cu Sc]
+19.0 +15.6 81 +20 +20 1023.6 1022.6
03 11.07 В 4 30 км 4/3 600 м
[Cu Sc]
+18.7 +15.5 82 +20 +20 1023.6 1022.6
06 11.07 СВ 7 30 км 1/1 600 м
[Cu Sc]
+22.4 +15.1 63 +26 +27 жарко 1024.1 1023.1 +18.5 +23.8
09 11.07 В 9 30 км 3/3 600 м
[Cu Sc]
+25.0 +17.0 61 +29 +30 душно 1023.7 1022.7
12 11.07 В 8 30 км 3/3 700 м
[Cu med, cong]
+24.5 +17.3 64 +28 +29 душно 1023.0 1022.0
15 11.07 В 6 20 км 3/3 600 м
[]
+21.6 +17.9 79 +26 +26 душно 1023.5 1022.5 +25.0
18 11.07 В 5 20 км 4/4 480 м
[Cu Sc]
+20.0 +17.4 85 +23 +23 комфорт 1024.4 1023.4 +25.0
21 11.07 В 2 20 км 3/3 480 м
[Cu Sc]
+18.7 +16.7 88 +20 +20 1024.8 1023.8
00 12.07 штиль 0 20 км 1/1 480 м
[Cu med, cong]
+17.2 +16.0 93 +17 +17 1024.6 1023.6
03 12.07 штиль 0 20 км 4/4 480 м
[Cu Sc]
+17.0 +15.3 90 +17 +17 1024.7 1023.7
06 12.07 СВ 4 30 км {ливн. осадки, дождь} 4/4 600 м
[Cu Sc]
+21.6 +16.5 73 +25 +27 комфорт 1025.9 1024.9 +17.0 +25.0 0.1
09 12.07 В 7 30 км 3/3 600 м
[Cu Sc]
+24.8 +16.9 61 +28 +30 жарко 1025.6 1024.6
12 12.07 ЮВ 7 10 км в посл. час ливневой дождь 9/9 480 м
[Cu Sc]
+21.4 +18.2 82 +26 +26 душно 1024.8 1023.8 1
15 12.07 В 5 10 км в посл. час ливневой дождь 9/9 480 м
[Cu Sc]
+20.5 +18.6 89 +24 +24 комфорт 1025.4 1024.4 +25.3 1
18 12.07 В 5 20 км {ливн. осадки, дождь} 5/5 600 м
[Cu Sc]
+21.2 +15.7 71 +24 +24 комфорт 1026.6 1025.6 1
21 12.07 СВ 4 20 км 1/1 600 м
[Cu Sc]
+20.4 +16.4 78 +24 +24 комфорт 1026.1 1025.1
03 13.07 В 3 10 км слабый дождь 9/9 600 м
[Cu Sc]
+18.4 +16.9 91 +19 +19 1026.3 1025.3 2
06 13.07 В 5 6000 м дождь 9/9 480 м
[Cu Sc]
+20.0 +17.6 86 +23 +23 комфорт 1026.7 1025.7 +18.1 +25.3 7
09 13.07 В 8 10 км осадки на расстоянии {дождь} 9/9 480 м
[Cu Sc]
+22.0 +18.5 81 +27 +27 душно 1026.5 1025.5 6
12 13.07 В 4 20 км 8/8 480 м
[Cu Sc]
+22.0 +17.1 74 +26 +27 душно 1025.1 1024.2 3
15 13.07 СВ 3 20 км 6/6 480 м
[Cu Sc]
+20.8 +17.0 79 +25 +25 комфорт 1025.4 1024.5 +23.0
18 13.07 СВ 3 20 км 6/6 480 м
[Cu Sc]
+20.1 +16.7 81 +23 +23 комфорт 1025.6 1024.6 +23.0 4
21 13.07 СВ 4 20 км 4/4 480 м
[Cu Sc]
+19.4 +16.5 83 +21 +21 комфорт 1025.9 1024.9
00 14.07 СВ 3 20 км 4/4 480 м
[Cu Sc]
+19.1 +15.8 81 +21 +21 комфорт 1024.9 1023.9
03 14.07 В 6 20 км в посл. час дождь 9/9 480 м
[Cu Sc]
+18.9 +17.4 91 +20 +20 1024.2 1023.2 1
06 14.07 СВ 8 30 км 5/5 600 м
[Cu Sc]
+21.5 +16.0 71 +25 +25 комфорт 1024.7 1023.7 +18.0 +23.0 4
09 14.07 СВ 9 30 км 4/4 600 м
[Cu Sc]
+23.0 +16.5 67 +28 +28 душно 1023.9 1022.9
12 14.07 СВ 10 30 км 4/4 600 м
[Cu Sc]
+24.1 +15.7 59 +27 +27 жарко 1021.6 1020.6
15 14.07 СВ 9 20 км 3/3 480 м
[Cu Sc]
+20.4 +17.3 82 +23 +23 комфорт 1021.0 1020.0 +24.5
18 14.07 СВ 10 20 км 3/3 480 м
[Cu Sc]
+21.4 +15.4 69 +25 +25 комфорт 1021.8 1020.8 +24.5
21 14.07 СВ 10 20 км 3/3 480 м
[Cu Sc]
+21.2 +15.9 72 +25 +25 комфорт 1021.8 1020.8
00 15.07 СВ 8 20 км 1/1 480 м
[Cu Sc]
+19.5 +14.3 72 +20 +20 1020.5 1019.5
03 15.07 В 4 30 км 1/1 600 м
[Cu Sc]
+19.5 +13.4 68 +21 +21 комфорт 1020.1 1019.1
06 15.07 штиль 0 30 км 1/1 600 м
[Cu med, cong]
+20.7 +16.6 77 +24 +30 комфорт 1021.5 1020.5 +18.8 +24.5
09 15.07 ЮВ 3 30 км ясно +26.2 +17.5 59 +30 +39 душно 1021.2 1020.2
12 15.07 ЮЗ 4 30 км 1/1 600 м
[Cu Sc]
+26.1 +16.1 54 +29 +32 жарко 1019.6 1018.6
15 15.07 З 2 20 км 3/3 600 м
[Cu Sc Ac trans]
+20.9 +17.8 82 +26 +26 душно 1020.7 1019.7 +26.4
18 15.07 СЗ 2 20 км 3/3 480 м
[Cu Sc Ac trans]
+19.4 +17.5 89 +22 +22 комфорт 1021.3 1020.3 +26.4
21 15.07 СЗ 2 20 км 3/3 480 м
[Cu Sc]
+18.6 1021.2 1021.0
00 16.07 С 2 20 км {ливн. осадки} 4/4 480 м
[Cu Sc]
+19.0 +17.4 90 +21 +21 комфорт 1021.0 1020.0 0.0
03 16.07 ЮЗ 8 6000 м слабый дождь 9/9 480 м
[Cu Sc]
+18.6 +16.3 86 +19 +19 1021.9 1020.9 4
06 16.07 Ю 9 10 км слабый дождь 9/9 480 м
[Cu Sc]
+19.0 +16.5 85 +20 +20 1024.5 1023.5 +18.2 +26.4 4
09 16.07 Ю 9 20 км 9/9 600 м
[Cu Sc]
+20.4 +13.4 64 +22 +22 комфорт 1025.8 1024.8 0.7

 

Местоположение метеостанции Taolagnaro (Мадагаскар): широта -25.03 долгота 46.95 высота над уровнем моря 9 м.

В архиве по умолчанию представлена погода в Taolagnaro за последнюю неделю. Архивные данные за месяц целиком и за предыдущие месяцы, начиная с января 2011 года, Вы можете получить, выбрав интересующий диапазон дат из раскрывающегося списка и нажав кнопку "Ввод!".


*Определитесь, кто Вы:
робот инопланетянин человек

Внимание! Время в таблицах - всемирное. Для получения местного времени необходимо прибавить поправку, которая в Taolagnaro равна 3 ч.

Смотрите также архив погоды в соседних городах и на ближайших метеорологических станциях:

Погода в Ranohira (Мадагаскар) (166 км)
Погода в Farafangana (Мадагаскар) (264 км)
Погода в Toliara (Мадагаскар) (375 км)
Погода в Fianarantsoa (Мадагаскар) (398 км)
Погода в Mananjary (Мадагаскар) (408 км)
Погода в Morombe (Мадагаскар) (516 км)
Погода в Antsirabe (Мадагаскар) (581 км)
Погода в Morondava (Мадагаскар) (593 км)
Погода в Mahanoro (Мадагаскар) (609 км)
Погода в Antananarivo (Мадагаскар) (687 км)

Пояснения к столбцам:

Ветер - указаны скорость ветра в м/с - средняя за 10 мин, порывы в срок и между сроками (в фигурных скобках) и направление, откуда дует ветер: С - северный, СВ - северо-восточный, В - восточный, ЮВ - юго-восточный, Ю - южный, ЮЗ - юго-западный, З - западный, СЗ - северо-западный.
Видимость - горизонтальная дальность видимости в метрах или километрах. При видимости от 1 до 10 км при отсутствии осадков обычно наблюдается дымка, при ухудшении видимости до 1 км и менее - туман. В сухую погоду видимость может ухудшаться дымом, пылью или мглою.
Явления - указаны атмосферные явления, наблюдавшиеся в срок или в последний час перед сроком; фигурными скобками обозначены явления, наблюдавшиеся между сроками (за 1-3 часа до срока); квадратными скобками обозначены град или гололедные отложения с указанием их диаметра в мм.
Облачность - указаны через наклонную черту общая и нижняя облачность в баллах и высота нижней границы облаков в метрах; квадратными скобками обозначены формы облаков: Ci - перистые, Cs - перисто-слоистые, Cc - перисто-кучевые, Ac - высококучевые, As - высокослоистые, Sc - слоисто-кучевые, Ns - слоисто-дождевые, Cu - кучевые, Cb - кучево-дождевые. Подробнее классификацию облаков см. в Атласе облаков (PDF).
T - Температура воздуха - температура, измеренная на высоте 2 м над землей.
Td - Температура точки росы - температура, при понижении до которой содержащийся в воздухе водяной пар достигнет насыщения.
f - Относительная влажность воздуха - влажноcть воздуха, измеренная на высоте 2 м над землей.
Te - Эффективная температура - температура, которую ощущает одетый по сезону человек в тени. Характеристика душности погоды. При расчете учитывается влияние влажности воздуха и скорости ветра на теплоощущения человека.
Tes - Эффективная температура на солнце - температура, которую ощущает человек, с поправкой на солнечный нагрев. Характеристика знойности погоды. Зависит от высоты солнца над горизонтом, облачности и скорости ветра. Ночью, в пасмурную погоду, а также при ветре 12 м/с и более поправка равна нулю.
P - Атмосферное давление - приведенное к уровню моря атмосферное давление.
Po - Атмосферное давление - измеренное на уровне метеостанции атмосферное давление.
Tmin - Минимальная температура - минимум температуры воздуха на высоте 2 м над землей.
Tmax - Максимальная температура - максимум температуры воздуха на высоте 2 м над землей.
R - Количество осадков - Количество выпавших осадков за период времени, мм. При наведении курсора мыши на число - период времени, за который выпало указанное количество осадков.
R24 - Количество осадков - Количество выпавших осадков за 24 часа, мм.
S - Снежный покров - Высота снежного покрова, см. При наведении курсора мыши на число - состояние снежного покрова и степень покрытия местности в баллах.